EW9596 Weather Reports


Display with metric or nautical units.
time (UTC)temp
F
wind
direction
speed
MPH
gust
MPH
rain 1hr
in
rain 24hr
in
rain mn
in
humidity
%
barometer
mb
20260507174522 57 273 3.0 10.0 0.00 0.01 0.00 47 1011.5
20260507174018 57 226 3.0 12.0 0.00 0.01 0.00 48 1011.5
20260507173521 56 294 5.0 12.0 0.00 0.01 0.00 45 1011.6
20260507173018 57 246 0.0 8.0 0.00 0.01 0.00 45 1011.5
20260507172517 57 355 3.0 8.0 0.00 0.01 0.00 44 1011.6
20260507172016 57 288 3.0 8.0 0.00 0.01 0.00 45 1011.7
20260507171526 57 343 4.0 8.0 0.00 0.01 0.00 49 1011.6
20260507171015 56 298 2.0 6.0 0.00 0.01 0.00 49 1011.8
20260507170516 56 256 1.0 10.0 0.00 0.01 0.00 47 1011.7
20260507170015 55 286 3.0 10.0 0.00 0.01 0.00 46 1011.8
20260507165515 56 319 1.0 5.0 0.00 0.01 0.00 46 1011.9
20260507165115 56 15 1.0 8.0 0.00 0.01 0.00 45 1011.9
20260507164515 57 234 3.0 8.0 0.00 0.01 0.00 45 1011.9
20260507164014 57 336 1.0 8.0 0.00 0.01 0.00 44 1011.9
20260507163513 57 225 3.0 9.0 0.00 0.01 0.00 47 1011.8
20260507163011 57 225 1.0 9.0 0.00 0.01 0.00 49 1011.9
20260507162512 56 248 1.0 8.0 0.00 0.01 0.00 52 1012.1
20260507162012 55 306 3.0 8.0 0.00 0.01 0.00 48 1012.2
20260507161513 55 198 4.0 8.0 0.00 0.01 0.00 47 1012.3
20260507161011 55 207 3.0 8.0 0.00 0.01 0.00 50 1012.4
20260507160514 54 178 2.0 6.0 0.00 0.01 0.00 50 1012.3
20260507160025 54 47 2.0 6.0 0.00 0.01 0.00 48 1012.3
20260507155515 54 254 3.0 8.0 0.00 0.02 0.00 48 1012.4
20260507155011 55 259 4.0 10.0 0.00 0.02 0.00 47 1012.5
20260507154511 55 250 3.0 10.0 0.00 0.02 0.00 47 1012.4
20260507154011 55 220 3.0 9.0 0.00 0.02 0.00 47 1012.5
20260507153610 56 208 5.0 9.0 0.00 0.02 0.00 47 1012.5
20260507153010 56 323 2.0 11.0 0.00 0.02 0.00 49 1012.7
20260507152510 56 224 4.0 10.0 0.00 0.02 0.00 47 1012.7
20260507152010 56 286 2.0 9.0 0.00 0.02 0.00 49 1012.7
20260507151509 56 240 5.0 9.0 0.00 0.02 0.00 45 1012.7
20260507151008 56 235 3.0 9.0 0.00 0.02 0.00 47 1012.8
20260507150510 56 235 3.0 9.0 0.00 0.02 0.00 49 1013.0
20260507150009 55 240 3.0 9.0 0.00 0.02 0.00 53 1012.9
20260507145505 55 240 4.0 9.0 0.00 0.04 0.00 48 1013.0
20260507145004 55 213 3.0 9.0 0.00 0.04 0.00 50 1013.1
20260507144503 55 286 2.0 6.0 0.00 0.04 0.00 50 1013.2
20260507144002 54 338 1.0 9.0 0.00 0.04 0.00 53 1013.1
20260507143559 54 247 1.0 11.0 0.00 0.04 0.00 52 1013.2
20260507143111 54 304 5.0 11.0 0.00 0.04 0.00 50 1013.3
20260507142600 54 37 3.0 10.0 0.00 0.04 0.00 50 1013.2
20260507142057 54 277 4.0 11.0 0.00 0.04 0.00 50 1013.3
20260507141618 54 231 5.0 11.0 0.00 0.04 0.00 52 1013.3
20260507141057 53 213 3.0 7.0 0.00 0.04 0.00 55 1013.3
20260507140557 53 209 3.0 6.0 0.00 0.04 0.00 56 1013.3
20260507140054 52 267 1.0 10.0 0.00 0.04 0.00 55 1013.3
20260507135552 52 219 5.0 10.0 0.00 0.08 0.00 56 1013.4
20260507135051 52 242 0.0 9.0 0.00 0.08 0.00 56 1013.5
20260507134551 51 228 3.0 8.0 0.00 0.08 0.00 56 1013.5
20260507134050 51 347 2.0 5.0 0.00 0.08 0.00 58 1013.5
20260507133550 51 269 2.0 9.0 0.00 0.08 0.00 59 1013.5
20260507133048 51 265 4.0 9.0 0.00 0.08 0.00 61 1013.6
20260507132547 50 297 2.0 9.0 0.00 0.08 0.00 61 1013.5
20260507132047 50 321 3.0 9.0 0.00 0.08 0.00 62 1013.5
20260507131557 50 269 3.0 6.0 0.00 0.08 0.00 65 1013.6
20260507131044 50 207 0.0 4.0 0.00 0.08 0.00 67 1013.5
20260507130542 49 219 2.0 4.0 0.00 0.08 0.00 71 1013.5
20260507130044 49 244 0.0 4.0 0.00 0.08 0.00 71 1013.5
20260507125540 48 233 1.0 4.0 0.00 0.17 0.00 74 1013.5
20260507125045 48 223 0.0 6.0 0.00 0.17 0.00 76 1013.6
20260507124538 47 215 1.0 5.0 0.00 0.17 0.00 78 1013.5
20260507124036 47 181 0.0 3.0 0.00 0.17 0.00 80 1013.6
20260507123534 47 242 1.0 4.0 0.00 0.17 0.00 81 1013.7
20260507123034 46 145 0.0 4.0 0.00 0.17 0.00 83 1013.8
20260507122533 45 210 0.0 4.0 0.00 0.17 0.00 84 1013.8
20260507122033 45 220 1.0 4.0 0.00 0.17 0.00 85 1013.7
20260507121535 44 228 2.0 4.0 0.00 0.17 0.00 85 1013.8
20260507121033 44 249 2.0 4.0 0.00 0.17 0.00 86 1013.7
20260507120532 43 225 0.0 2.0 0.00 0.17 0.00 86 1013.7
20260507120033 43 226 0.0 4.0 0.00 0.17 0.00 87 1013.7
20260507115532 42 251 2.0 4.0 0.00 0.17 0.00 87 1013.7
20260507115033 42 214 0.0 0.0 0.00 0.17 0.00 87 1013.7
20260507114532 41 214 0.0 3.0 0.00 0.17 0.00 87 1013.6
20260507114033 41 214 0.0 3.0 0.00 0.17 0.00 87 1013.6
20260507113531 40 202 0.0 3.0 0.00 0.17 0.00 86 1013.6
20260507113031 40 263 0.0 0.0 0.00 0.17 0.00 86 1013.6
20260507112530 39 346 0.0 0.0 0.00 0.17 0.00 86 1013.4
20260507112030 39 348 0.0 0.0 0.00 0.17 0.00 86 1013.3
20260507111530 39 348 0.0 0.0 0.00 0.17 0.00 85 1013.3
20260507111030 38 348 0.0 0.0 0.00 0.17 0.00 84 1013.4
20260507110530 38 348 0.0 0.0 0.00 0.17 0.00 84 1013.5
20260507110030 38 348 0.0 0.0 0.00 0.17 0.00 84 1013.4
20260507105529 38 348 0.0 0.0 0.00 0.17 0.00 83 1013.4
20260507105029 38 348 0.0 0.0 0.00 0.17 0.00 83 1013.4
20260507104528 38 348 0.0 0.0 0.00 0.17 0.00 83 1013.3
20260507104027 38 348 0.0 0.0 0.00 0.17 0.00 83 1013.3
20260507103526 38 348 0.0 0.0 0.00 0.17 0.00 83 1013.2
20260507103025 38 348 0.0 0.0 0.00 0.17 0.00 83 1013.2
20260507102525 38 348 0.0 0.0 0.00 0.17 0.00 83 1013.0
20260507102025 38 348 0.0 1.0 0.00 0.17 0.00 82 1013.1
20260507101525 38 348 0.0 1.0 0.00 0.17 0.00 82 1013.0
20260507101025 39 348 0.0 0.0 0.00 0.17 0.00 81 1012.9
20260507100523 39 348 0.0 0.0 0.00 0.17 0.00 81 1012.9
20260507100029 39 242 0.0 0.0 0.00 0.17 0.00 81 1012.9
20260507095524 39 242 0.0 0.0 0.00 0.17 0.00 81 1013.0
20260507095021 39 242 0.0 0.0 0.00 0.17 0.00 81 1012.8
20260507094520 40 242 0.0 0.0 0.00 0.17 0.00 81 1013.0
20260507094021 40 242 0.0 0.0 0.00 0.17 0.00 81 1012.9
20260507093518 40 242 0.0 0.0 0.00 0.17 0.00 81 1012.9
20260507093017 40 242 0.0 0.0 0.00 0.17 0.00 81 1012.9
20260507092517 41 242 0.0 0.0 0.00 0.17 0.00 81 1013.0
20260507092021 41 242 0.0 0.0 0.00 0.17 0.00 81 1012.9
20260507091519 41 242 0.0 0.0 0.00 0.17 0.00 81 1013.0
20260507091014 41 242 0.0 0.0 0.00 0.17 0.00 81 1013.0
20260507090514 41 242 0.0 0.0 0.00 0.17 0.00 81 1013.0
20260507090012 42 242 0.0 0.0 0.00 0.17 0.00 81 1013.0
20260507085512 42 242 0.0 0.0 0.00 0.17 0.00 81 1013.0
20260507085011 42 242 0.0 0.0 0.00 0.17 0.00 81 1012.9
20260507084509 42 242 0.0 0.0 0.00 0.17 0.00 81 1013.0
20260507084013 43 242 0.0 0.0 0.00 0.17 0.00 81 1012.9
20260507083508 43 242 0.0 0.0 0.00 0.17 0.00 81 1013.0
20260507083008 43 242 0.0 0.0 0.00 0.17 0.00 81 1013.0
20260507082507 43 242 0.0 0.0 0.00 0.17 0.00 81 1013.0
20260507082006 43 242 0.0 0.0 0.00 0.17 0.00 81 1012.9
20260507081506 43 242 0.0 0.0 0.00 0.17 0.00 81 1013.0
20260507081006 44 242 0.0 0.0 0.00 0.17 0.00 82 1013.0
20260507080508 44 242 0.0 0.0 0.00 0.17 0.00 81 1013.0
20260507080005 44 250 0.0 0.0 0.00 0.17 0.00 81 1013.0
20260507075505 44 250 0.0 0.0 0.00 0.17 0.00 81 1012.9
20260507075005 44 250 0.0 0.0 0.00 0.17 0.00 82 1013.0
20260507074504 44 250 0.0 0.0 0.00 0.17 0.00 82 1012.9
20260507074006 44 250 0.0 1.0 0.00 0.17 0.00 82 1012.9
20260507073503 44 250 0.0 2.0 0.00 0.17 0.00 82 1012.9
20260507073006 44 250 0.0 3.0 0.00 0.17 0.00 82 1012.8
20260507072503 44 250 0.0 4.0 0.00 0.17 0.00 82 1012.8
20260507072002 44 246 0.0 5.0 0.00 0.17 0.00 82 1012.9
20260507071502 44 268 2.0 6.0 0.00 0.17 0.00 82 1013.0
20260507071003 44 297 0.0 7.0 0.00 0.17 0.00 83 1013.0
20260507070502 44 277 3.0 7.0 0.00 0.17 0.00 83 1013.1
20260507070000 44 251 0.0 3.0 0.00 0.17 0.00 83 1013.1
20260507065603 44 320 0.0 5.0 0.00 0.17 0.00 83 1013.0
20260507065059 44 321 2.0 7.0 0.00 0.17 0.00 83 1012.9
20260507064638 44 218 1.0 9.0 0.00 0.17 0.00 84 1012.9
20260507064103 44 234 3.0 9.0 0.00 0.17 0.00 84 1012.8
20260507063558 45 257 0.0 5.0 0.00 0.17 0.00 85 1012.8
20260507063115 45 281 3.0 5.0 0.00 0.17 0.00 85 1012.8
20260507062555 45 355 1.0 5.0 0.00 0.17 0.00 86 1012.7
20260507062055 45 270 0.0 7.0 0.00 0.17 0.00 86 1012.6
20260507061555 45 240 3.0 9.0 0.00 0.17 0.00 87 1012.6
20260507061053 45 246 4.0 16.0 0.00 0.17 0.00 87 1012.6
20260507060552 45 267 5.0 11.0 0.00 0.17 0.00 88 1012.5
20260507060111 46 297 2.0 7.0 0.00 0.17 0.00 88 1012.4
20260507055552 46 30 2.0 10.0 0.00 0.17 0.00 89 1012.4
20260507055051 46 278 4.0 10.0 0.00 0.17 0.00 89 1012.3
20260507054557 46 267 0.0 11.0 0.00 0.17 0.00 89 1012.3
20260507054050 46 346 5.0 13.0 0.00 0.17 0.00 89 1012.3
20260507053549 46 294 5.0 13.0 0.00 0.17 0.00 89 1012.2
20260507053047 46 201 3.0 7.0 0.00 0.17 0.00 89 1012.1
20260507052547 46 290 0.0 7.0 0.00 0.17 0.00 89 1012.1
20260507052046 46 236 0.0 0.0 0.00 0.17 0.00 89 1012.3
20260507051601 46 237 0.0 0.0 0.00 0.17 0.00 89 1012.2
20260507051045 46 237 0.0 0.0 0.00 0.17 0.00 89 1012.1
20260507050545 46 229 0.0 3.0 0.00 0.17 0.00 89 1012.1
20260507050049 46 229 0.0 4.0 0.00 0.17 0.00 89 1012.1
20260507045545 46 231 0.0 4.0 0.00 0.17 0.00 89 1012.0
20260507045045 46 240 1.0 5.0 0.00 0.17 0.00 89 1012.0
20260507044644 46 214 0.0 5.0 0.00 0.17 0.00 89 1012.1
20260507044046 46 128 1.0 5.0 0.00 0.17 0.00 89 1012.2
20260507043543 46 243 1.0 4.0 0.00 0.17 0.00 89 1012.1
20260507043043 46 223 1.0 4.0 0.00 0.17 0.00 88 1012.1
20260507042541 46 211 0.0 0.0 0.00 0.17 0.00 88 1012.1
20260507042040 46 215 0.0 0.0 0.00 0.17 0.00 88 1012.1
20260507041539 46 215 0.0 0.0 0.00 0.17 0.00 88 1011.8
20260507041039 46 215 0.0 0.0 0.00 0.17 0.00 88 1011.9
20260507040539 46 215 0.0 0.0 0.00 0.17 0.00 88 1011.9
20260507040038 46 215 0.0 0.0 0.00 0.17 0.00 88 1011.8
20260507035537 46 215 0.0 0.0 0.00 0.17 0.17 88 1011.9
20260507035038 46 215 0.0 0.0 0.00 0.17 0.17 88 1012.1
20260507034538 46 215 0.0 0.0 0.00 0.17 0.17 88 1011.9
20260507034037 46 215 0.0 0.0 0.00 0.17 0.17 88 1011.7
20260507033537 46 215 0.0 0.0 0.00 0.17 0.17 88 1011.9
20260507033036 46 215 0.0 0.0 0.00 0.17 0.17 88 1011.6
20260507032536 46 215 0.0 0.0 0.00 0.17 0.17 88 1011.4
20260507032039 46 215 0.0 0.0 0.00 0.17 0.17 88 1011.7
20260507031536 46 215 0.0 0.0 0.00 0.17 0.17 88 1011.9
20260507031036 46 215 0.0 0.0 0.00 0.17 0.17 88 1011.8
20260507030535 46 215 0.0 0.0 0.00 0.17 0.17 88 1012.0
20260507030037 46 215 0.0 0.0 0.00 0.17 0.17 88 1011.8
20260507025537 46 215 0.0 0.0 0.00 0.17 0.17 88 1011.7
20260507025039 46 215 0.0 0.0 0.00 0.17 0.17 88 1012.2
20260507024535 46 215 0.0 0.0 0.00 0.17 0.17 88 1012.3
20260507024033 46 215 0.0 0.0 0.00 0.17 0.17 88 1012.3
20260507023533 46 215 0.0 0.0 0.00 0.17 0.17 88 1012.1
20260507023033 46 215 0.0 0.0 0.00 0.17 0.17 88 1012.1
20260507022533 46 215 0.0 0.0 0.00 0.17 0.17 88 1011.9
20260507022033 46 215 0.0 0.0 0.00 0.17 0.17 88 1011.8
20260507021536 46 215 0.0 0.0 0.00 0.17 0.17 88 1012.5
20260507021032 46 215 0.0 0.0 0.00 0.17 0.17 88 1012.5
20260507020531 46 215 0.0 0.0 0.00 0.17 0.17 88 1012.2
20260507020035 46 215 0.0 0.0 0.00 0.17 0.17 88 1012.5
20260507015531 46 215 0.0 0.0 0.00 0.17 0.17 88 1012.2
20260507015034 46 215 0.0 0.0 0.00 0.17 0.17 88 1012.4
20260507014531 46 215 0.0 0.0 0.00 0.17 0.17 88 1012.5
20260507014031 46 215 0.0 0.0 0.00 0.17 0.17 88 1012.3
20260507013529 46 215 0.0 0.0 0.00 0.17 0.17 88 1012.2
20260507013029 46 215 0.0 0.0 0.00 0.17 0.17 88 1012.2
20260507012532 46 215 0.0 0.0 0.00 0.17 0.17 88 1012.2
20260507012029 46 215 0.0 0.0 0.00 0.17 0.17 88 1012.4
20260507011533 47 215 0.0 0.0 0.00 0.17 0.17 88 1012.2
20260507011027 47 215 0.0 0.0 0.00 0.17 0.17 88 1012.2
20260507010527 47 215 0.0 0.0 0.00 0.17 0.17 87 1012.2
20260507010034 47 215 0.0 0.0 0.00 0.17 0.17 87 1012.1
20260507005528 47 215 0.0 0.0 0.00 0.17 0.17 87 1012.0
20260507005025 47 215 0.0 0.0 0.00 0.17 0.17 87 1012.0
20260507004526 47 215 0.0 0.0 0.00 0.17 0.17 87 1011.9
20260507004025 47 215 0.0 0.0 0.00 0.17 0.17 87 1012.0
20260507003524 47 215 0.0 0.0 0.00 0.17 0.17 87 1011.8
20260507003023 47 218 0.0 0.0 0.00 0.17 0.17 87 1011.7
20260507002522 47 218 0.0 0.0 0.00 0.17 0.17 88 1011.7
20260507002026 47 209 0.0 0.0 0.00 0.17 0.17 88 1011.7
20260507001522 47 208 0.0 0.0 0.00 0.17 0.17 88 1011.7
20260507001021 47 208 0.0 0.0 0.00 0.17 0.17 88 1011.4
20260507000521 47 227 0.0 0.0 0.00 0.17 0.17 87 1011.4
20260507000022 47 227 0.0 0.0 0.00 0.17 0.17 88 1011.4
20260506235521 47 231 0.0 0.0 0.00 0.17 0.17 87 1011.5
20260506235019 47 230 0.0 0.0 0.00 0.17 0.17 87 1011.4
20260506234520 47 232 0.0 0.0 0.00 0.17 0.17 87 1011.3
20260506234017 47 232 0.0 0.0 0.00 0.17 0.17 87 1011.3
20260506233517 47 232 0.0 0.0 0.00 0.17 0.17 87 1011.2
20260506233017 47 221 0.0 0.0 0.00 0.17 0.17 87 1011.2
20260506232516 47 223 0.0 0.0 0.00 0.17 0.17 87 1011.1
20260506232017 47 219 0.0 0.0 0.00 0.17 0.17 87 1011.0
20260506231516 48 219 0.0 0.0 0.00 0.17 0.17 88 1011.1
20260506231015 48 214 0.0 0.0 0.00 0.17 0.17 87 1011.2
20260506230513 48 234 0.0 0.0 0.00 0.17 0.17 87 1011.0
20260506230019 48 249 0.0 0.0 0.00 0.17 0.17 88 1011.0
20260506225515 48 238 0.0 0.0 0.00 0.17 0.17 88 1010.9
20260506225013 48 238 0.0 4.0 0.00 0.17 0.17 88 1010.9
20260506224512 48 271 1.0 4.0 0.00 0.17 0.17 88 1010.9
20260506224010 48 241 2.0 7.0 0.00 0.17 0.17 88 1010.8
20260506223510 48 253 0.0 7.0 0.00 0.17 0.17 88 1010.7
20260506223010 48 267 2.0 6.0 0.00 0.17 0.17 88 1010.7
20260506222509 48 270 3.0 9.0 0.00 0.17 0.17 88 1010.5
20260506222008 48 215 4.0 9.0 0.00 0.17 0.17 88 1010.4
20260506221508 48 277 1.0 8.0 0.00 0.17 0.17 88 1010.5
20260506221007 48 263 3.0 8.0 0.00 0.17 0.17 89 1010.5
20260506220507 48 288 2.0 7.0 0.00 0.17 0.17 89 1010.3
20260506220007 48 271 0.0 8.0 0.00 0.17 0.17 89 1010.3
20260506215510 48 279 2.0 8.0 0.00 0.17 0.17 89 1010.3
20260506215006 48 284 0.0 5.0 0.00 0.17 0.17 89 1010.3
20260506214505 48 286 0.0 8.0 0.00 0.17 0.17 89 1010.4
20260506214006 48 288 5.0 8.0 0.00 0.17 0.17 89 1010.4
20260506213503 48 252 1.0 10.0 0.00 0.17 0.17 89 1010.3
20260506213005 48 306 3.0 10.0 0.00 0.17 0.17 89 1010.3
20260506212502 49 212 3.0 8.0 0.00 0.17 0.17 89 1010.2
20260506212001 49 207 2.0 9.0 0.00 0.17 0.17 89 1009.9
20260506211501 49 275 3.0 10.0 0.00 0.17 0.17 89 1009.9
20260506211100 49 236 4.0 10.0 0.00 0.17 0.17 89 1009.9
20260506210600 49 252 2.0 6.0 0.00 0.17 0.17 89 1009.7
20260506210105 49 226 3.0 8.0 0.00 0.17 0.17 90 1009.5
20260506205557 49 295 0.0 5.0 0.00 0.17 0.17 90 1009.4
20260506205056 49 219 2.0 8.0 0.00 0.17 0.17 89 1009.4
20260506204606 49 261 2.0 8.0 0.00 0.17 0.17 89 1009.3
20260506204054 49 221 3.0 8.0 0.00 0.17 0.17 89 1009.2
20260506203554 49 309 3.0 10.0 0.00 0.17 0.17 89 1009.2
20260506203053 49 280 6.0 10.0 0.00 0.17 0.17 89 1009.1
20260506202552 49 241 4.0 8.0 0.00 0.17 0.17 89 1009.0
20260506202054 49 240 2.0 6.0 0.01 0.17 0.17 89 1008.8
20260506201551 49 258 3.0 6.0 0.01 0.17 0.17 89 1008.6
20260506201050 49 291 4.0 7.0 0.01 0.17 0.17 89 1008.4
20260506200550 49 267 1.0 4.0 0.01 0.17 0.17 89 1008.3
20260506200051 49 236 1.0 9.0 0.01 0.17 0.17 89 1008.3
20260506195556 49 271 4.0 9.0 0.01 0.19 0.17 89 1008.4
20260506195048 49 227 3.0 8.0 0.01 0.19 0.17 89 1008.4
20260506194549 49 223 3.0 10.0 0.01 0.19 0.17 89 1008.4
20260506194048 50 222 5.0 11.0 0.01 0.19 0.17 89 1008.5
20260506193546 50 207 6.0 11.0 0.01 0.19 0.17 89 1008.3
20260506193045 50 248 4.0 11.0 0.01 0.19 0.17 89 1008.4
20260506192545 50 249 4.0 7.0 0.01 0.19 0.17 89 1008.3
20260506192044 50 233 3.0 8.0 0.00 0.18 0.16 89 1008.1
20260506191549 50 217 3.0 8.0 0.00 0.18 0.16 89 1008.1
20260506191045 50 243 2.0 6.0 0.00 0.18 0.16 89 1008.0
20260506190542 50 217 3.0 6.0 0.00 0.18 0.16 88 1007.9
20260506190042 50 238 2.0 5.0 0.00 0.18 0.16 88 1007.9
20260506185540 51 217 0.0 6.0 0.00 0.18 0.16 88 1007.7
20260506185040 51 217 2.0 6.0 0.00 0.18 0.16 88 1007.7
20260506184542 51 205 3.0 7.0 0.00 0.18 0.16 88 1007.6
20260506184039 51 235 2.0 6.0 0.00 0.18 0.16 88 1007.6
20260506183541 51 227 0.0 5.0 0.00 0.18 0.16 88 1007.5
20260506183039 51 248 3.0 6.0 0.00 0.18 0.16 88 1007.5
20260506182537 51 200 2.0 6.0 0.00 0.18 0.16 88 1007.5
20260506182036 52 240 1.0 6.0 0.00 0.18 0.16 88 1007.4
20260506181538 52 257 3.0 6.0 0.00 0.18 0.16 88 1007.3
20260506181034 52 230 0.0 6.0 0.00 0.18 0.16 88 1007.1
20260506180534 52 229 0.0 8.0 0.00 0.18 0.16 88 1007.1
20260506180038 53 255 3.0 8.0 0.00 0.18 0.16 87 1007.1
20260506175531 53 202 3.0 8.0 0.00 0.18 0.16 87 1007.0
20260506175031 54 241 1.0 7.0 0.00 0.18 0.16 87 1006.8